When you browse on this site, cookies collect data to enhance your experience and personalize the content and advertising you see.
Visit our Privacy Policy to learn more. By continuing to use the site, you agree to this use of cookies and data.
  • In Slovakia
  • List of Countries
  • For 7 days
  • Water Temperature
  • Satellite Maps
  • Weather Map
  • Weather Widgets
  • user-avatar
    Login

    Hourly Weather Megri

    Today, 25 June, Tuesday

    Time Temperature Precipitation Wind Pressure Humidity
    00:00 +19°C° 0 mm 3 mps 624 mmHg 73%
    01:00 +19°C° 0 mm 3 mps 623 mmHg 73%
    02:00 +19°C° 0 mm 2 mps 623 mmHg 73%
    03:00 +18°C° 0 mm 2 mps 623 mmHg 74%
    04:00 +19°C° 0 mm 2 mps 624 mmHg 71%
    05:00 +20°C° 0 mm 2 mps 624 mmHg 69%
    06:00 +20°C° 0 mm 2 mps 625 mmHg 67%
    07:00 +23°C° 0 mm 2 mps 625 mmHg 61%
    08:00 +24°C° 0 mm 2 mps 626 mmHg 56%
    09:00 +26°C° 0 mm 2 mps 626 mmHg 50%
    10:00 +27°C° 0 mm 3 mps 626 mmHg 46%
    11:00 +28°C° 0 mm 3 mps 627 mmHg 41%
    12:00 +29°C° 0 mm 3 mps 627 mmHg 37%
    13:00 +30°C° 0 mm 3 mps 627 mmHg 37%
    14:00 +30°C° 0 mm 4 mps 626 mmHg 36%
    15:00 +30°C° 0 mm 4 mps 626 mmHg 35%
    16:00 +29°C° 0 mm 4 mps 626 mmHg 38%
    17:00 +28°C° 0 mm 4 mps 625 mmHg 41%
    18:00 +27°C° 0 mm 5 mps 625 mmHg 44%
    19:00 +25°C° 0 mm 4 mps 625 mmHg 46%
    20:00 +23°C° 0 mm 4 mps 625 mmHg 49%
    21:00 +21°C° 0 mm 3 mps 625 mmHg 51%
    22:00 +21°C° 0 mm 3 mps 625 mmHg 50%
    23:00 +20°C° 0 mm 3 mps 625 mmHg 48%

    Tomorrow, 26 June, Wednesday

    Time Temperature Precipitation Wind Pressure Humidity
    00:00 +20°C° 0 mm 3 mps 624 mmHg 47%
    01:00 +19°C° 0 mm 3 mps 624 mmHg 47%
    02:00 +19°C° 0 mm 3 mps 624 mmHg 48%
    03:00 +19°C° 0 mm 2 mps 624 mmHg 48%
    04:00 +19°C° 0 mm 2 mps 624 mmHg 46%
    05:00 +20°C° 0 mm 2 mps 625 mmHg 44%
    06:00 +20°C° 0 mm 2 mps 625 mmHg 42%
    07:00 +23°C° 0 mm 2 mps 626 mmHg 37%
    08:00 +24°C° 0 mm 3 mps 626 mmHg 32%
    09:00 +26°C° 0 mm 3 mps 627 mmHg 28%
    10:00 +27°C° 0 mm 3 mps 627 mmHg 27%
    11:00 +28°C° 0 mm 3 mps 627 mmHg 26%
    12:00 +29°C° 0 mm 4 mps 627 mmHg 25%
    13:00 +29°C° 0 mm 4 mps 627 mmHg 26%
    14:00 +29°C° 0 mm 4 mps 626 mmHg 27%
    15:00 +30°C° 0 mm 5 mps 626 mmHg 27%
    16:00 +29°C° 0 mm 5 mps 626 mmHg 29%
    17:00 +28°C° 0 mm 4 mps 625 mmHg 32%
    18:00 +27°C° 0 mm 4 mps 625 mmHg 34%
    19:00 +25°C° 0 mm 4 mps 625 mmHg 39%
    20:00 +23°C° 0 mm 4 mps 624 mmHg 45%
    21:00 +21°C° 0 mm 3 mps 624 mmHg 50%
    22:00 +20°C° 0 mm 3 mps 624 mmHg 54%
    23:00 +20°C° 0 mm 3 mps 623 mmHg 57%

    Day after tomorrow, 27 June, Thursday

    Time Temperature Precipitation Wind Pressure Humidity
    00:00 +19°C° 0 mm 3 mps 623 mmHg 61%
    01:00 +19°C° 0 mm 2 mps 623 mmHg 61%
    02:00 +18°C° 0 mm 2 mps 623 mmHg 61%
    03:00 +18°C° 0 mm 2 mps 623 mmHg 61%
    04:00 +19°C° 0 mm 2 mps 623 mmHg 59%
    05:00 +19°C° 0 mm 2 mps 623 mmHg 56%
    06:00 +20°C° 0 mm 2 mps 623 mmHg 53%
    07:00 +21°C° 0 mm 2 mps 624 mmHg 48%
    08:00 +22°C° 0 mm 3 mps 624 mmHg 44%
    09:00 +25°C° 0 mm 3 mps 624 mmHg 39%
    10:00 +26°C° 0 mm 3 mps 624 mmHg 38%
    11:00 +27°C° 0 mm 3 mps 624 mmHg 37%
    12:00 +28°C° 0 mm 4 mps 624 mmHg 36%
    13:00 +28°C° 0 mm 4 mps 624 mmHg 36%
    14:00 +28°C° 0 mm 4 mps 623 mmHg 37%
    15:00 +28°C° 0 mm 5 mps 623 mmHg 37%
    16:00 +27°C° 0 mm 5 mps 622 mmHg 42%
    17:00 +26°C° 0 mm 5 mps 622 mmHg 46%
    18:00 +25°C° 0 mm 5 mps 621 mmHg 51%
    19:00 +22°C° 0.1 mm 5 mps 621 mmHg 56%
    20:00 +20°C° 0.1 mm 4 mps 620 mmHg 62%
    21:00 +19°C° 0.1 mm 4 mps 620 mmHg 67%
    22:00 +18°C° 0.1 mm 4 mps 620 mmHg 69%
    23:00 +18°C° 0.1 mm 3 mps 620 mmHg 71%

    28 June, Friday

    Time Temperature Precipitation Wind Pressure Humidity
    00:00 +17°C° 0.1 mm 3 mps 619 mmHg 73%
    01:00 +17°C° 0 mm 3 mps 619 mmHg 73%
    02:00 +17°C° 0 mm 2 mps 619 mmHg 74%
    03:00 +17°C° 0 mm 2 mps 619 mmHg 74%
    04:00 +17°C° 0 mm 2 mps 619 mmHg 72%
    05:00 +17°C° 0 mm 2 mps 619 mmHg 70%
    06:00 +18°C° 0 mm 2 mps 619 mmHg 68%
    07:00 +19°C° 0 mm 2 mps 619 mmHg 61%
    08:00 +21°C° 0 mm 3 mps 620 mmHg 55%
    09:00 +24°C° 0 mm 3 mps 620 mmHg 48%
    10:00 +25°C° 0 mm 3 mps 620 mmHg 45%
    11:00 +26°C° 0 mm 3 mps 620 mmHg 42%
    12:00 +28°C° 0 mm 3 mps 620 mmHg 39%
    13:00 +28°C° 0.1 mm 3 mps 620 mmHg 38%
    14:00 +28°C° 0.1 mm 4 mps 619 mmHg 37%
    15:00 +28°C° 0.1 mm 4 mps 619 mmHg 37%
    16:00 +27°C° 0.1 mm 4 mps 619 mmHg 41%
    17:00 +25°C° 0.1 mm 4 mps 618 mmHg 45%
    18:00 +23°C° 0.1 mm 4 mps 618 mmHg 49%
    19:00 +21°C° 0.2 mm 4 mps 618 mmHg 55%
    20:00 +19°C° 0.2 mm 3 mps 618 mmHg 61%
    21:00 +17°C° 0.2 mm 3 mps 618 mmHg 68%
    22:00 +17°C° 0 mm 2 mps 618 mmHg 67%
    23:00 +17°C° 0 mm 2 mps 618 mmHg 67%

    29 June, Saturday

    Time Temperature Precipitation Wind Pressure Humidity
    00:00 +17°C° 0 mm 2 mps 618 mmHg 67%
    01:00 +16°C° 0 mm 1 mps 617 mmHg 69%
    02:00 +16°C° 0 mm 1 mps 617 mmHg 71%
    03:00 +16°C° 0 mm 1 mps 617 mmHg 73%
    04:00 +16°C° 0 mm 1 mps 617 mmHg 69%
    05:00 +18°C° 0 mm 1 mps 618 mmHg 65%
    06:00 +19°C° 0 mm 1 mps 618 mmHg 62%
    07:00 +21°C° 0 mm 1 mps 618 mmHg 57%
    08:00 +22°C° 0 mm 1 mps 619 mmHg 52%
    09:00 +24°C° 0 mm 1 mps 619 mmHg 47%
    10:00 +25°C° 0 mm 1 mps 619 mmHg 42%
    11:00 +26°C° 0 mm 2 mps 620 mmHg 37%
    12:00 +28°C° 0 mm 3 mps 620 mmHg 32%
    13:00 +28°C° 0 mm 3 mps 620 mmHg 30%
    14:00 +29°C° 0 mm 3 mps 619 mmHg 28%
    15:00 +29°C° 0 mm 3 mps 619 mmHg 26%
    16:00 +29°C° 0 mm 3 mps 619 mmHg 27%
    17:00 +28°C° 0 mm 3 mps 619 mmHg 29%
    18:00 +28°C° 0 mm 3 mps 619 mmHg 30%
    19:00 +26°C° 0 mm 2 mps 619 mmHg 37%
    20:00 +24°C° 0 mm 2 mps 618 mmHg 44%
    21:00 +21°C° 0 mm 2 mps 618 mmHg 51%
    22:00 +20°C° 0 mm 2 mps 618 mmHg 54%
    23:00 +20°C° 0 mm 2 mps 618 mmHg 57%

    30 June, Sunday

    Time Temperature Precipitation Wind Pressure Humidity
    00:00 +19°C° 0 mm 2 mps 618 mmHg 60%
    01:00 +18°C° 0 mm 2 mps 618 mmHg 63%
    02:00 +17°C° 0 mm 2 mps 617 mmHg 65%
    03:00 +17°C° 0 mm 2 mps 617 mmHg 68%
    04:00 +17°C° 0 mm 2 mps 617 mmHg 67%
    05:00 +17°C° 0 mm 2 mps 618 mmHg 67%
    06:00 +17°C° 0 mm 2 mps 618 mmHg 67%
    07:00 +19°C° 0 mm 2 mps 618 mmHg 61%
    08:00 +21°C° 0 mm 2 mps 619 mmHg 54%
    09:00 +23°C° 0 mm 1 mps 619 mmHg 47%
    10:00 +25°C° 0 mm 2 mps 619 mmHg 42%
    11:00 +26°C° 0 mm 3 mps 620 mmHg 38%
    12:00 +27°C° 0 mm 3 mps 620 mmHg 33%
    13:00 +28°C° 0 mm 3 mps 620 mmHg 32%
    14:00 +28°C° 0 mm 3 mps 620 mmHg 32%
    15:00 +28°C° 0 mm 3 mps 620 mmHg 32%
    16:00 +28°C° 0 mm 3 mps 619 mmHg 36%
    17:00 +27°C° 0 mm 3 mps 619 mmHg 41%
    18:00 +26°C° 0 mm 3 mps 619 mmHg 45%
    19:00 +24°C° 0 mm 3 mps 619 mmHg 53%
    20:00 +23°C° 0 mm 2 mps 619 mmHg 61%
    21:00 +20°C° 0 mm 2 mps 618 mmHg 70%
    22:00 +19°C° 0 mm 2 mps 618 mmHg 73%
    23:00 +19°C° 0 mm 2 mps 618 mmHg 76%
    Show more